Regional Weather Roundup
Issued by NWS

Home | Current Version | Previous Version | Text Only | Print | Product List | Glossary Off
Versions: 1 2 3 4 5 6 7 8 9 10 11 12 13 14 15 16 17 18 19 20 21 22 23 24 25 26 27 28 29 30 31 32 33 34 35 36 37 38 39 40 41 42 43 44 45 46 47 48 49 50

000
ASUS43 KMPX 301010
RWRMN
WEATHER ROUNDUP FOR MINNESOTA
NATIONAL WEATHER SERVICE TWIN CITIES/CHANHASSEN MN
500 AM CDT MON MAR 30 2015


NOTE: "FAIR" INDICATES FEW OR NO CLOUDS BELOW 12,000 FEET WITH NO
SIGNIFICANT WEATHER AND/OR OBSTRUCTIONS TO VISIBILITY. N/A MEANS
CURRENT SKY AND/OR WEATHER CONDITIONS ARE NOT AVAILABLE.

MNZ060>063-068>070-301100-
   Twin Cities Metro

CITY           SKY/WX    TMP DP  RH WIND       PRES   REMARKS
TWIN CITIES    PTCLDY    38  28  67 SW3       29.95S
ST PAUL        PTCLDY    39  27  62 CALM      29.95F
CRYSTAL        CLEAR     38  27  64 W7        29.93S
BLAINE         CLEAR     37  28  70 CALM      29.93F
LAKEVILLE      CLEAR     36  27  69 CALM      29.95S
EDEN PRAIRIE   CLEAR     35  27  72 SW6       29.94F WCI  30
SOUTH ST PAUL  CLEAR     39  28  64 W7        29.94F
LAKE ELMO      FAIR      36  30  80 CALM      29.94F
$$
MNZ001>005-007-008-013>017-022>024-027-028-301100-
   Northwest Minnesota

CITY           SKY/WX    TMP DP  RH WIND       PRES   REMARKS
BEMIDJI        CLEAR     28  25  89 CALM      29.88R
HALLOCK        CLOUDY    32  30  93 S3        29.87S
ROSEAU         FAIR      30  25  80 CALM      29.87R
WARROAD        PTCLDY    30  27  86 SW6       29.87R WCI  24
THIEF RVR FALL PTCLDY    32  28  86 CALM      29.89R
CROOKSTON      CLOUDY    30  28  93 CALM      29.91S
FOSSTON        PTCLDY    27  25  93 CALM      29.90R
DETROIT LAKES  CLEAR     34  30  86 CALM      29.93R
MOORHEAD       CLOUDY    36  34  93 CALM      29.92F
PARK RAPIDS    PTCLDY    32  26  78 CALM      29.89R
MAHNOMEN       PTSUNNY   31  28  90 S8        29.91R WCI  24
$$
MNZ006-009>011-018-025>026-301100-
   North Central Minnesota

CITY           SKY/WX    TMP DP  RH WIND       PRES   REMARKS
BAUDETTE       CLEAR     30  24  78 CALM      29.85R
FLAG ISLAND    CLEAR     30  25  80 CALM      29.85R
INTL FALLS     CLEAR     27  22  81 W3        29.84R
WASKISH        CLEAR     28  28 100 CALM      29.87S
BIG FORK       CLEAR     27  25  93 CALM      29.87R
LONGVILLE      FAIR      25  25 100 CALM      29.89S
GRAND RAPIDS   CLEAR     28  23  80 CALM      29.88R
ORR            CLEAR     30  21  69 CALM      29.82S
COOK           CLEAR     28  23  80 CALM      29.85R
WALKER         FAIR      32  26  79 CALM      29.88S
$$
MNZ012-019>021-037-301100-
   Northeast Minnesota

CITY           SKY/WX    TMP DP  RH WIND       PRES   REMARKS
DULUTH         CLEAR     36  25  64 NW10      29.85R
ELY            CLEAR     30  25  80 CALM      29.83R
HIBBING        CLEAR     26  21  81 CALM      29.85R
EVELETH        CLEAR     32  25  74 W6        29.86R WCI  26
DULUTH HARBOR  CLEAR     39  28  65 CALM      29.88R
TWO HARBORS    CLEAR     37  27  65 NW7       29.81S
SILVER BAY     CLEAR     36  25  64 W7        29.80R
GRAND MARAIS     N/A     36  26  67 NW10G24   29.75R
G MARAIS ARPRT CLEAR     28  21  74 NW12G22   29.74R WCI  18
$$
MNZ029>031-032-039>041-046>048-054>057-064-301100-
   West Central Minnesota

CITY           SKY/WX    TMP DP  RH WIND       PRES   REMARKS
FERGUS FALLS   MOCLDY    34  27  75 CALM      29.96R
WHEATON        PTCLDY    36  27  69 SW5       29.96S
MORRIS         PTCLDY    34  27  75 CALM      29.94R
ALEXANDRIA     CLEAR     31  26  82 W5        29.93S WCI  26
ELBOW LAKE     FAIR      32  27  82 CALM      29.94R
WADENA         PTCLDY    30  25  80 W7        29.92R WCI  23
GLENWOOD       CLEAR     34  27  75 W7        29.94S WCI  28
APPLETON       PTCLDY    34  27  75 CALM      29.96R
BENSON         CLEAR     28  25  86 SW5       29.95S WCI  23
ORTONVILLE     MOCLDY    36  25  64 CALM      29.96R
MADISON        MOCLDY    41  25  52 W6        29.96R
WILLMAR        FAIR      34  27  75 CALM      29.97R
$$
MNZ033>034-036-042>043-049>051-058-059-301100-
   Central Minnesota

CITY           SKY/WX    TMP DP  RH WIND       PRES   REMARKS
ST CLOUD       CLEAR     30  25  81 CALM      29.93S
SAUK CENTRE    FAIR      32  27  81 CALM      29.94R
PAYNESVILLE    CLEAR     28  26  89 SW7       29.95R WCI  21
AITKIN         CLEAR     25  19  80 CALM      29.88S
PINE RIVER     CLEAR     27  25  93 CALM      29.93S
BRAINERD       CLEAR     27  22  81 CALM      29.91R
STAPLES        CLEAR     30  25  80 W3        29.91S
LONG PRAIRIE   FAIR      32  28  86 CALM      29.93S
LITTLE FALLS   CLEAR     30  27  86 CALM      29.92S
LITCHFIELD     CLEAR     37  27  65 CALM      29.95R
BUFFALO        CLEAR     32  27  80 CALM      29.95S
MAPLE LAKE     CLEAR     35  29  79 SW6       29.95R WCI  30
$$
MNZ037-044-045-052-053-301100-
   East Central Minnesota

CITY           SKY/WX    TMP DP  RH WIND       PRES   REMARKS
PRINCETON      CLEAR     32  27  80 CALM      29.93S
MORA           CLEAR     32  25  74 CALM      29.93S
CAMBRIDGE      PTCLDY    37  27  65 CALM      29.91S
RUSH CITY      PTCLDY    33  25  73 CALM      29.92S
MOOSE LAKE     CLEAR     32  25  74 CALM      29.88R
HINCKLEY       FAIR      32  27  80 CALM      29.91S
CLOQUET        CLEAR     34  25  69 W8        29.87R WCI  27
MCGREGOR       CLEAR     32  27  80 CALM      29.89S
$$
MNZ071>073-080-081-089-090-097-098-301100-
   Southwest Minnesota

CITY           SKY/WX    TMP DP  RH WIND       PRES   REMARKS
MONTEVIDEO     PTCLDY    37  27  65 W5        29.97R
GRANITE FALLS  PTCLDY    35  26  69 SW7       29.98R WCI  29
CANBY          MOCLDY    45  25  45 SW9       29.97S
MARSHALL       PTCLDY    43  21  42 SW16      29.97S
REDWOOD FALLS  PTCLDY    39  24  55 SW12      29.96R
OLIVIA         CLEAR     32  27  80 SW6       29.96R WCI  26
PIPESTONE      PTCLDY    34  21  60 SW3       29.99F
WINDOM         PTCLDY    36  23  60 SW6       29.99F
WORTHINGTON    PTCLDY    37  19  48 SW10      30.02S
JACKSON        PTCLDY    36  23  60 SW9       30.01S
TRACY          PTCLDY    40  24  51 SW13      29.98R
SLAYTON        PTCLDY    40  18  41 CALM      30.00S
$$
MNZ065>067-074>077-082>085-091>093-301100-
   South Central Minnesota

CITY           SKY/WX    TMP DP  RH WIND       PRES   REMARKS
MANKATO        CLEAR     37  25  60 W12       29.96F
NEW ULM        CLEAR     39  23  52 SW13      29.96S
ST JAMES       CLEAR     36  25  64 S7        29.99F
FAIRMONT       PTCLDY    37  23  56 SW12      29.99S
GLENCOE        CLEAR     35  31  85 CALM      29.95S
FARIBAULT      CLEAR     34  27  75 S5        29.96F WCI  30
OWATONNA       CLEAR     34  27  75 SW5       29.97S WCI  30
WASECA         CLEAR     34  27  75 SW6       29.98F WCI  29
ALBERT LEA     CLEAR     41  27  56 SW8       29.98S
$$
MNZ078>079-086>088-094>096-301100-
   Southeast Minnesota

CITY           SKY/WX    TMP DP  RH WIND       PRES   REMARKS
ROCHESTER      CLEAR     35  27  72 W12       29.97F WCI  27
RED WING       PTCLDY    34  28  80 CALM      29.95S
STANTON        CLEAR     37  28  70 S6        29.95S
DODGE CENTER   PTCLDY    30  27  86 SW7       29.96F WCI  23
WINONA         PTCLDY    34  32  93 CALM      29.98R
AUSTIN         CLEAR     36  27  69 SW8       29.98S
PRESTON        CLEAR     36  27  69 SW8       29.98F
$$
ABBREVIATIONS USED IN REMARKS
   TC - TEMPERATURES IN CELSIUS
  WCI - WIND CHILL INDEX
   HX - HEAT INDEX
  VSB - VISIBILITY
$$



USA.gov is the U.S. government's official web portal to all federal, state and local government web resources and services.